DW2959 Murcia ES current weather conditions

sailwx.info

Wind from 241 at 5 knots gusting 13

Air temperature 0.6° C
Dewpoint -2.0° C

Last reported at 2017-Jan-18 11:36 UTC.
Time now 2017-Jan-18 12:09 UTC

Location: N 38°00' W 001°02'.
View on Google Maps.

See reports from other nearby stations

  
Tides and Currents Weather Stations Pressure Air Temp Water Temp Dewpoint Dewpoint Depression Visibility Wind Speed Wind Dir Waves Ship Positions
date/time (UTC)wind fromknots sea level pressurealtimeterstation pressurevisibilityair tempwater tempwave heightnotes
2017-Jan-18 11:36 241 5 gusting 13 0.6
2017-Jan-18 11:22 233 4 gusting 12 -0.0
2017-Jan-18 11:07 240 6 gusting 12 -0.0
2017-Jan-18 10:51 213 6 gusting 12 0.6
2017-Jan-18 10:37 232 5 gusting 10 0.6
2017-Jan-18 10:20 240 4 gusting 8 1.1
2017-Jan-18 10:06 223 2 gusting 10 1.7
2017-Jan-18 09:50 248 3 gusting 6 2.8
2017-Jan-18 09:36 228 5 gusting 9 2.8
2017-Jan-18 09:22 251 3 gusting 10 2.8
2017-Jan-18 09:04 248 6 gusting 9 2.8
2017-Jan-18 08:50 228 4 gusting 12 2.2
2017-Jan-18 08:34 232 4 gusting 9 2.2
2017-Jan-18 08:20 248 1 gusting 8 2.2
2017-Jan-18 08:04 263 2 gusting 8 1.7
2017-Jan-18 07:48 267 3 gusting 6 1.1
2017-Jan-18 07:34 236 5 gusting 10 1.1
2017-Jan-18 07:19 262 2 gusting 6 1.1
2017-Jan-18 07:04 238 1 gusting 6 1.1
2017-Jan-18 06:49 257 1 gusting 6 1.1
2017-Jan-18 06:33 244 1 gusting 6 1.1
2017-Jan-18 06:17 254 1 gusting 6 1.7
2017-Jan-18 06:06 263 2 gusting 6 1.7
2017-Jan-18 05:48 257 2 gusting 6 1.7
2017-Jan-18 05:33 253 0 gusting 4 1.1
2017-Jan-18 05:18 247 0 gusting 6 1.1
2017-Jan-18 05:02 258 2 gusting 6 1.7
2017-Jan-18 04:47 246 0 gusting 4 1.7
2017-Jan-18 04:32 246 2 gusting 6 1.7
2017-Jan-18 04:16 232 2 gusting 6 1.7
2017-Jan-18 04:02 241 2 gusting 7 1.7
2017-Jan-18 03:46 240 2 gusting 6 2.2
2017-Jan-18 03:32 264 2 gusting 6 2.2
2017-Jan-18 03:16 255 3 gusting 6 2.2
2017-Jan-18 03:00 234 3 gusting 6 2.8
2017-Jan-18 02:51 238 2 gusting 8 2.8
2017-Jan-18 02:31 241 1 gusting 6 2.8
2017-Jan-18 02:15 232 3 gusting 6 2.8
2017-Jan-18 02:01 242 2 gusting 6 2.2
2017-Jan-18 01:45 270 6 gusting 7 2.8
2017-Jan-18 01:29 259 1 gusting 6 2.8
2017-Jan-18 01:15 241 2 gusting 6 2.8
2017-Jan-18 01:00 265 1 gusting 5 3.3
2017-Jan-18 00:45 265 3 gusting 6 3.3
2017-Jan-18 00:29 236 1 gusting 7 3.9
2017-Jan-18 00:14 235 3 gusting 6 3.3
2017-Jan-17 23:59 249 0 gusting 4 3.9
2017-Jan-17 23:44 250 4.4
2017-Jan-17 23:28 247 1 gusting 6 4.4
2017-Jan-17 23:14 225 4.4
2017-Jan-17 22:57 196 3.9
2017-Jan-17 22:42 196 0 gusting 4 3.9
2017-Jan-17 22:29 186 1 gusting 4 3.9
2017-Jan-17 22:13 082 4.4
2017-Jan-17 21:58 082 5.6
2017-Jan-17 21:42 082 5.6
2017-Jan-17 21:27 095 6.1
2017-Jan-17 21:13 096 6.1
2017-Jan-17 20:56 095 6.1
2017-Jan-17 20:42 126 6.7
2017-Jan-17 20:27 078 0 gusting 7 6.7
2017-Jan-17 20:11 121 6.7
2017-Jan-17 19:56 111 0 gusting 7 6.7
2017-Jan-17 19:41 090 7.2
2017-Jan-17 19:25 077 0 gusting 7 7.8
2017-Jan-17 19:13 077 5 gusting 11 7.8
2017-Jan-17 18:55 110 8.3
2017-Jan-17 18:41 123 8.3
2017-Jan-17 18:25 123 8.3
2017-Jan-17 18:10 115 8.3
2017-Jan-17 17:55 110 8.3
2017-Jan-17 17:39 103 8.3
2017-Jan-17 17:24 082 8.3
2017-Jan-17 17:09 118 4 gusting 7 8.3
2017-Jan-17 16:54 087 3 gusting 9 8.3
2017-Jan-17 16:39 109 2 gusting 10 8.9
2017-Jan-17 16:24 082 3 gusting 10 8.9
2017-Jan-17 16:10 090 3 gusting 9 9.4
2017-Jan-17 15:54 094 4 gusting 11 9.4
2017-Jan-17 15:39 086 5 gusting 11 10.0
2017-Jan-17 15:23 088 6 gusting 13 10.0
2017-Jan-17 15:08 121 6 gusting 13 10.0
2017-Jan-17 14:54 087 8 gusting 13 10.6
2017-Jan-17 14:38 070 2 gusting 13 10.6
2017-Jan-17 14:23 063 7 gusting 14 10.0
2017-Jan-17 14:08 118 8 gusting 14 10.6
2017-Jan-17 13:54 121 3 gusting 10 11.1
2017-Jan-17 13:38 084 6 gusting 11 11.1
2017-Jan-17 13:23 092 5 gusting 13 10.6
2017-Jan-17 13:08 080 6 gusting 13 10.6
2017-Jan-17 12:53 088 4 gusting 9 10.0
2017-Jan-17 12:38 089 6 gusting 12 9.4
2017-Jan-17 12:22 057 5 gusting 11 10.0
2017-Jan-17 12:07 100 8 gusting 13 10.0
2017-Jan-17 11:52 078 6 gusting 13 10.0
2017-Jan-17 11:37 101 6 gusting 15 10.6
2017-Jan-17 11:22 088 6 gusting 14 10.6
2017-Jan-17 11:07 058 6 gusting 13 11.7
2017-Jan-17 10:52 109 6 gusting 12 11.1
2017-Jan-17 10:36 103 4 gusting 13 12.2
2017-Jan-17 10:22 342 13 gusting 22 14.4
2017-Jan-17 10:06 360 13 gusting 22 15.0
2017-Jan-17 09:51 344 11 gusting 19 14.4
2017-Jan-17 09:21 341 5 gusting 13 13.9
2017-Jan-17 09:06 318 7 gusting 14 13.3
2017-Jan-17 08:51 323 10 gusting 15 13.3
2017-Jan-17 08:36 325 8 gusting 15 12.8
2017-Jan-17 08:21 312 11 gusting 18 13.3
2017-Jan-17 08:06 311 11 gusting 19 12.8
2017-Jan-17 07:50 320 10 gusting 19 12.8
2017-Jan-17 07:37 302 16 gusting 25 13.3
2017-Jan-17 07:20 316 15 gusting 26 13.3
2017-Jan-17 07:06 290 13 gusting 27 13.3
2017-Jan-17 06:50 321 15 gusting 26 13.3
2017-Jan-17 06:35 304 14 gusting 26 13.3
2017-Jan-17 06:20 306 11 gusting 20 12.8
2017-Jan-17 06:05 327 11 gusting 23 13.3
2017-Jan-17 05:50 279 14 gusting 23 13.3
2017-Jan-17 05:34 314 15 gusting 22 12.8
2017-Jan-17 05:20 319 8 gusting 19 12.8
2017-Jan-17 05:05 282 11 gusting 21 13.3
2017-Jan-17 04:49 321 8 gusting 18 12.8
2017-Jan-17 04:34 315 11 gusting 24 13.3
2017-Jan-17 04:19 305 10 gusting 19 13.3
2017-Jan-17 04:05 310 14 gusting 26 13.3
2017-Jan-17 03:49 317 13 gusting 25 13.3
2017-Jan-17 03:35 319 11 gusting 21 13.3
2017-Jan-17 03:19 296 6 gusting 18 13.3
2017-Jan-17 03:04 296 5 gusting 9 12.8
2017-Jan-17 02:34 238 2 gusting 9 12.8
2017-Jan-17 02:20 258 6 gusting 12 13.3
2017-Jan-17 02:04 281 6 gusting 15 13.3
2017-Jan-17 01:48 265 6 gusting 16 13.3
2017-Jan-17 01:34 247 6 gusting 12 13.3
2017-Jan-17 01:21 269 7 gusting 13 13.9
2017-Jan-17 01:02 277 7 gusting 18 13.9
2017-Jan-17 00:48 278 10 gusting 18 13.9
2017-Jan-17 00:33 273 10 gusting 16 13.9
2017-Jan-17 00:17 274 13 gusting 21 13.9
2017-Jan-17 00:03 295 10 gusting 18 14.4
2017-Jan-16 23:47 289 9 gusting 16 14.4
2017-Jan-16 23:31 291 11 gusting 17 14.4
2017-Jan-16 23:16 265 7 gusting 17 14.4
2017-Jan-16 23:01 250 9 gusting 19 14.4
2017-Jan-16 22:46 262 9 gusting 14 14.4
2017-Jan-16 22:31 265 6 gusting 18 14.4
2017-Jan-16 22:16 257 5 gusting 13 14.4
2017-Jan-16 22:05 266 9 gusting 13 15.0
2017-Jan-16 21:47 271 9 gusting 14 15.0
2017-Jan-16 21:31 290 7 gusting 16 15.0
2017-Jan-16 21:16 285 8 gusting 14 15.0
2017-Jan-16 20:45 276 7 gusting 11 15.0
2017-Jan-16 20:30 284 6 gusting 11 14.4
2017-Jan-16 20:14 267 5 gusting 13 15.0
2017-Jan-16 19:59 279 6 gusting 13 15.0
2017-Jan-16 19:45 261 6 gusting 12 14.4
2017-Jan-16 19:29 275 6 gusting 14 15.0
2017-Jan-16 19:14 252 5 gusting 13 15.0
2017-Jan-16 18:59 260 5 gusting 13 15.0
2017-Jan-16 18:49 268 5 gusting 8 14.4
2017-Jan-16 18:28 260 3 gusting 12 15.0
2017-Jan-16 18:14 264 4 gusting 10 15.0
2017-Jan-16 17:58 271 6 gusting 12 15.6
2017-Jan-16 17:43 264 6 gusting 13 15.6
2017-Jan-16 17:29 284 6 gusting 12 15.6
2017-Jan-16 17:13 271 9 gusting 15 16.1
2017-Jan-16 16:58 300 11 gusting 19 16.1
2017-Jan-16 16:43 298 9 gusting 16 16.7
2017-Jan-16 16:28 315 13 gusting 19 16.7
2017-Jan-16 16:13 300 11 gusting 17 17.2
2017-Jan-16 15:57 311 7 gusting 15 17.2
2017-Jan-16 15:42 318 8 gusting 18 17.2
2017-Jan-16 15:28 329 11 gusting 20 17.8
2017-Jan-16 15:12 321 12 gusting 18 17.8
2017-Jan-16 14:57 332 12 gusting 19 17.8
2017-Jan-16 14:41 319 9 gusting 16 18.3
2017-Jan-16 14:26 315 10 gusting 18 18.3
2017-Jan-16 14:11 310 7 gusting 18 18.3
2017-Jan-16 13:56 307 10 gusting 16 17.8
2017-Jan-16 13:41 288 9 gusting 15 17.8
2017-Jan-16 13:27 296 12 gusting 17 17.8
2017-Jan-16 13:10 325 9 gusting 17 17.8
2017-Jan-16 12:55 302 6 gusting 17 17.2
2017-Jan-16 12:40 281 11 gusting 19 16.7
2017-Jan-16 12:26 297 12 gusting 19 16.7
2017-Jan-16 12:13 290 12 gusting 21 16.7